Weather History for Richmond, KY

Change the Weather History Date:

Tuesday, January 14, 2014

  Actual Average (KLOZ) Record (KLOZ)
Temperature  
Mean Temperature 43 °F 35 °F  
Max Temperature 51 °F 44 °F 69 °F (2007)
Min Temperature 35 °F 26 °F 4 °F (1963)
Degree Days  
Heating Degree Days 22 30  
Month to date heating degree days 416  
Since 1 July heating degree days 2068  
Cooling Degree Days 0 0  
Month to date cooling degree days 0  
Year to date cooling degree days 0  
Moisture  
Dew Point 33 °F    
Average Humidity 71    
Maximum Humidity 93    
Minimum Humidity 35    
Precipitation  
Precipitation 0.00 in 0.11 in 0.97 in (1995)
Month to date precipitation 1.60  
Year to date precipitation 1.60  
Sea Level Pressure  
Sea Level Pressure 29.86 in    
Wind  
Wind Speed 8 mph (WSW)    
Max Wind Speed 20 mph    
Max Gust Speed 25 mph    
Visibility 9 miles    
Events      
T = Trace of Precipitation, MM = Missing Value Source: NWS Daily Summary

Daily Weather History Graph

Daily Weather History Graph

Search for Another Location

Airport:

Trip Planner

Search our weather history database for the weather conditions in past years. The results will help you decide how hot, cold, wet, or windy it might be!

Date:

Astronomy

Jan. 14, 2014 Rise Set
Actual Time 7:51 AM EST 5:41 PM EST
Civil Twilight 7:22 AM EST 6:10 PM EST
Nautical Twilight 6:50 AM EST 6:42 PM EST
Astronomical Twilight 6:19 AM EST 7:14 PM EST
Moon 4:45 PM EST (1/14) 6:25 AM EST (1/14)
Length of Visible Light 10h 47m
Length of Day
9h 50m
Waxing Gibbous, 98% of the Moon is Illuminated
Jan 14
Waxing Gibbous
Jan 15
Full
Jan 24
Last Quarter
Jan 30
New
Feb 6
First Quarter

Hourly Weather History & Observations

Time (EST) Temp. Windchill Dew Point Humidity Pressure Visibility Wind Dir Wind Speed Gust Speed Precip Events Conditions
12:15 AM 44.6 °F 40.2 °F 42.8 °F 93% 29.79 in 5.0 mi WSW 8.1 mph - N/A   Overcast
12:35 AM 44.6 °F 40.7 °F 42.8 °F 93% 29.78 in 7.0 mi SW 6.9 mph - N/A   Overcast
12:55 AM 44.6 °F 40.2 °F 42.8 °F 93% 29.79 in 7.0 mi WSW 8.1 mph - N/A   Overcast
1:15 AM 44.6 °F 41.4 °F 42.8 °F 93% 29.78 in 7.0 mi WSW 5.8 mph - N/A   Overcast
1:35 AM 44.6 °F 40.7 °F 42.8 °F 93% 29.78 in 7.0 mi West 6.9 mph - N/A   Overcast
1:55 AM 44.6 °F 40.2 °F 42.8 °F 93% 29.78 in 10.0 mi WNW 8.1 mph - N/A   Overcast
2:15 AM 44.6 °F 40.2 °F 42.8 °F 93% 29.79 in 10.0 mi WNW 8.1 mph - N/A   Overcast
2:35 AM 44.6 °F 43.1 °F 41.0 °F 87% 29.80 in 10.0 mi West 3.5 mph - N/A   Overcast
2:55 AM 44.6 °F 43.1 °F 41.0 °F 87% 29.81 in 10.0 mi WSW 3.5 mph - N/A   Overcast
3:15 AM 42.8 °F 40.1 °F 41.0 °F 93% 29.82 in 10.0 mi WSW 4.6 mph - N/A   Overcast
3:35 AM 44.6 °F 42.2 °F 41.0 °F 87% 29.82 in 10.0 mi WSW 4.6 mph - N/A   Overcast
3:55 AM 42.8 °F 40.1 °F 41.0 °F 93% 29.81 in 10.0 mi WSW 4.6 mph - N/A   Overcast
4:15 AM 42.8 °F 41.1 °F 41.0 °F 93% 29.81 in 10.0 mi West 3.5 mph - N/A   Overcast
4:35 AM 42.8 °F 41.1 °F 39.2 °F 87% 29.80 in 10.0 mi West 3.5 mph - N/A   Overcast
4:55 AM 42.8 °F 40.1 °F 39.2 °F 87% 29.82 in 10.0 mi WNW 4.6 mph - N/A   Overcast
5:15 AM 42.8 °F 39.3 °F 39.2 °F 87% 29.83 in 10.0 mi WSW 5.8 mph - N/A   Overcast
5:35 AM 42.8 °F 39.3 °F 39.2 °F 87% 29.83 in 10.0 mi West 5.8 mph - N/A   Overcast
5:55 AM 41.0 °F 36.4 °F 37.4 °F 87% 29.83 in 10.0 mi WNW 6.9 mph - N/A   Mostly Cloudy
6:15 AM 41.0 °F 37.1 °F 37.4 °F 87% 29.81 in 10.0 mi WNW 5.8 mph - N/A   Clear
6:35 AM 39.2 °F 35.0 °F 37.4 °F 93% 29.82 in 10.0 mi West 5.8 mph - N/A   Clear
6:55 AM 39.2 °F 34.2 °F 37.4 °F 93% 29.85 in 10.0 mi West 6.9 mph - N/A   Clear
7:15 AM 39.2 °F 37.0 °F 35.6 °F 87% 29.86 in 10.0 mi SW 3.5 mph - N/A   Scattered Clouds
7:35 AM 39.2 °F 35.9 °F 37.4 °F 93% 29.86 in 5.0 mi WSW 4.6 mph - N/A   Scattered Clouds
7:55 AM 37.4 °F 34.9 °F 35.6 °F 93% 29.86 in 4.0 mi WSW 3.5 mph - N/A   Clear
8:15 AM 37.4 °F 32.8 °F 35.6 °F 93% 29.86 in 10.0 mi SW 5.8 mph - N/A   Clear
8:35 AM 37.4 °F 32.8 °F 35.6 °F 93% 29.88 in 7.0 mi SSW 5.8 mph - N/A   Clear
8:55 AM 37.4 °F 32.8 °F 35.6 °F 93% 29.88 in 5.0 mi SSW 5.8 mph - N/A   Clear
9:15 AM 39.2 °F 34.2 °F 35.6 °F 87% 29.89 in 7.0 mi SW 6.9 mph - N/A   Clear
9:35 AM 41.0 °F 36.4 °F 37.4 °F 87% 29.90 in 10.0 mi SW 6.9 mph - N/A   Clear
9:55 AM 41.0 °F 37.1 °F 35.6 °F 81% 29.90 in 10.0 mi SW 5.8 mph - N/A   Clear
10:15 AM 42.8 °F 38.0 °F 35.6 °F 76% 29.89 in 10.0 mi SW 8.1 mph - N/A   Clear
10:35 AM 42.8 °F 36.6 °F 35.6 °F 76% 29.90 in 10.0 mi West 11.5 mph - N/A   Clear
10:55 AM 44.6 °F 39.7 °F 33.8 °F 66% 29.90 in 10.0 mi WSW 9.2 mph - N/A   Clear
11:15 AM 44.6 °F 38.4 °F 32.0 °F 61% 29.90 in 10.0 mi WSW 12.7 mph - N/A   Clear
11:35 AM 44.6 °F 38.4 °F 30.2 °F 57% 29.90 in 10.0 mi West 12.7 mph 17.3 mph N/A   Clear
11:55 AM 44.6 °F 38.4 °F 30.2 °F 57% 29.90 in 10.0 mi WSW 12.7 mph 19.6 mph N/A   Clear
12:15 PM 46.4 °F 40.4 °F 28.4 °F 50% 29.90 in 10.0 mi WSW 13.8 mph 19.6 mph N/A   Clear
12:35 PM 46.4 °F 40.7 °F 28.4 °F 50% 29.89 in 10.0 mi WSW 12.7 mph 16.1 mph N/A   Clear
12:55 PM 48.2 °F - 24.8 °F 40% 29.87 in 10.0 mi SW 10.4 mph - N/A   Clear
1:15 PM 48.2 °F - 24.8 °F 40% 29.88 in 10.0 mi WSW 8.1 mph - N/A   Clear
1:35 PM 48.2 °F - 26.6 °F 43% 29.86 in 10.0 mi West 11.5 mph - N/A   Clear
1:55 PM 48.2 °F - 24.8 °F 40% 29.86 in 10.0 mi WSW 9.2 mph 21.9 mph N/A   Clear
2:15 PM 50.0 °F - 26.6 °F 40% 29.86 in 10.0 mi SW 10.4 mph 18.4 mph N/A   Clear
2:35 PM 50.0 °F - 24.8 °F 37% 29.86 in 10.0 mi SW 12.7 mph - N/A   Clear
2:55 PM 50.0 °F - 23.0 °F 35% 29.85 in 10.0 mi SSW 11.5 mph - N/A   Clear
3:15 PM 50.0 °F - 23.0 °F 35% 29.85 in 10.0 mi SSW 11.5 mph - N/A   Clear
3:35 PM 51.8 °F - 24.8 °F 35% 29.85 in 10.0 mi SSW 10.4 mph - N/A   Clear
3:55 PM 50.0 °F - 24.8 °F 37% 29.85 in 10.0 mi SSW 9.2 mph - N/A   Clear
4:15 PM 50.0 °F - 24.8 °F 37% 29.85 in 10.0 mi South 10.4 mph - N/A   Clear
4:35 PM 50.0 °F - 26.6 °F 40% 29.84 in 10.0 mi South 9.2 mph 16.1 mph N/A   Clear
4:55 PM 48.2 °F - 26.6 °F 43% 29.84 in 10.0 mi SSW 11.5 mph - N/A   Clear
5:15 PM 48.2 °F - 26.6 °F 43% 29.84 in 10.0 mi South 11.5 mph - N/A   Clear
5:35 PM 46.4 °F 41.9 °F 26.6 °F 46% 29.85 in 10.0 mi SSW 9.2 mph - N/A   Clear
5:55 PM 46.4 °F 42.4 °F 26.6 °F 46% 29.85 in 10.0 mi SSW 8.1 mph - N/A   Clear
6:15 PM 44.6 °F 40.7 °F 26.6 °F 49% 29.86 in 10.0 mi SSW 6.9 mph - N/A   Scattered Clouds
6:35 PM 44.6 °F 40.2 °F 28.4 °F 53% 29.86 in 10.0 mi SSW 8.1 mph - N/A   Mostly Cloudy
6:55 PM 44.6 °F 40.2 °F 28.4 °F 53% 29.87 in 10.0 mi SSW 8.1 mph - N/A   Mostly Cloudy
7:15 PM 46.4 °F 43.5 °F 28.4 °F 50% 29.88 in 10.0 mi SSW 5.8 mph - N/A   Mostly Cloudy
7:35 PM 46.4 °F 42.9 °F 28.4 °F 50% 29.88 in 10.0 mi SSW 6.9 mph - N/A   Overcast
7:55 PM 46.4 °F 42.9 °F 28.4 °F 50% 29.87 in 10.0 mi SSW 6.9 mph - N/A   Overcast
8:15 PM 46.4 °F 42.9 °F 28.4 °F 50% 29.88 in 10.0 mi SSW 6.9 mph - N/A   Overcast
8:35 PM 46.4 °F 41.9 °F 28.4 °F 50% 29.87 in 10.0 mi SW 9.2 mph - N/A   Overcast
8:55 PM 46.4 °F 39.5 °F 28.4 °F 50% 29.89 in 10.0 mi West 17.3 mph 24.2 mph N/A   Overcast
9:15 PM 42.8 °F 35.4 °F 35.6 °F 76% 29.92 in 10.0 mi WNW 15.0 mph 25.3 mph N/A   Overcast
9:35 PM 39.2 °F 29.6 °F 33.8 °F 81% 29.93 in 10.0 mi WNW 19.6 mph 25.3 mph N/A   Overcast
9:55 PM 39.2 °F 30.2 °F 33.8 °F 81% 29.94 in 10.0 mi WNW 17.3 mph 21.9 mph N/A   Overcast
10:15 PM 37.4 °F 30.3 °F 33.8 °F 87% 29.95 in 10.0 mi West 10.4 mph 23.0 mph N/A   Overcast
10:35 PM 35.6 °F 27.5 °F 33.8 °F 93% 29.96 in 10.0 mi West 11.5 mph 17.3 mph N/A   Overcast
10:55 PM 35.6 °F 29.9 °F 33.8 °F 93% 29.96 in 10.0 mi WNW 6.9 mph - N/A   Overcast
11:15 PM 35.6 °F 30.7 °F 33.8 °F 93% 29.96 in 7.0 mi WNW 5.8 mph - N/A   Overcast
11:35 PM 35.6 °F 31.7 °F 33.8 °F 93% 29.96 in 10.0 mi WSW 4.6 mph - N/A   Overcast
11:55 PM 35.6 °F 31.7 °F 33.8 °F 93% 29.95 in 10.0 mi WSW 4.6 mph - N/A   Overcast